Regional Weather Roundup
Issued by NWS

Home | Current Version | Previous Version | Graphics & Text | Print | Product List | Glossary On
Versions: 1 2 3 4 5 6 7 8 9 10 11 12 13 14 15 16 17 18 19 20 21 22 23 24 25 26 27 28 29 30 31 32 33 34 35 36 37 38 39 40 41 42 43 44 45 46 47 48 49 50
000
ASUS43 KLOT 210408
RWRIL

ILLINOIS REGIONAL WEATHER ROUNDUP
NATIONAL WEATHER SERVICE CHICAGO/ROMEOVILLE IL
1000 PM CST MON NOV 20 2017

NOTE: "FAIR" INDICATES FEW OR NO CLOUDS BELOW 12,000 FEET WITH NO
SIGNIFICANT WEATHER AND/OR OBSTRUCTIONS TO VISIBILITY.

* THESE STATIONS ARE NOT UNDER NWS QUALITY CONTROL. THEY ALSO MAY NOT
  REPORT WEATHER SUCH AS PRECIPITATION OR FOG.

ILZ001-002-007-009-015-016-024-210500-
NORTHWEST ILLINOIS

CITY           SKY/WX    TMP DP  RH WIND       PRES   REMARKS
MOLINE         CLOUDY    51  30  44 S16       29.67F
STERLING*      CLOUDY    46  32  58 VRB6      29.68F
SAVANNA*       CLOUDY    44  33  65 S9        29.65F
$$

ILZ003-004-008-010-011-017-018-210500-
NORTH CENTRAL ILLINOIS

CITY           SKY/WX    TMP DP  RH WIND       PRES   REMARKS
ROCKFORD       CLOUDY    46  32  58 S20       29.67F
FREEPORT*      CLOUDY    45  32  60 S20       29.64F
ROCHELLE*      CLOUDY    41  34  75 S16       29.69F
DE KALB*       CLOUDY    41  33  73 S20G32    29.70F
PERU*          CLOUDY    42  32  67 S12       29.74F
$$

ILZ005-006-012>014-019>023-210500-
NORTHEAST ILLINOIS

CITY           SKY/WX    TMP DP  RH WIND       PRES   REMARKS
CHICAGO-OHARE  CLOUDY    46  30  53 SW24G36   29.71F
CHICAGO-MIDWAY CLOUDY    44  31  60 S23G32    29.74F
AURORA         CLOUDY    44  32  62 S16G24    29.73F
LANSING*       CLOUDY    42  32  68 S22G31    29.78S
JOLIET*        PTCLDY    44  32  63 S15G21    29.77S
WAUKEGAN       MOCLDY    45  32  60 SW23G35   29.65F
DUPAGE AIRPORT CLOUDY    43  32  65 S14       29.71F
KANKAKEE*      CLEAR     40  30  67 S16G22    29.82S
WHEELING       CLOUDY    46  31  55 S24G31    29.71F
MORRIS*        CLOUDY    42  32  66 S20G25    29.75S
ROMEOVILLE*    CLOUDY    43  32  65 SW21G31   29.75F
NORTHERLY ISL    N/A     45  28  52 S22         N/A
$$

LMZ740>746-210500-
SOUTHERN LAKE MICHIGAN

STATION/POSITION SKY/WX   TEMP    WIND        PRES    VSBY  WAVE
                          AIR SEA DIR/SP/G                  HT/PER
                          (F)     (DEG/KT/KT) (MB)    (MI)  (FT/S)
SOUTHERN BUOY              48 48  230/ 27/ 35 1005.0          9/ 7
HARRISON CRIB              46     210/ 37/ 42   N/A
BURNHAM HARBOR             45     180/ 15/ 23   N/A
CALUMET HARBOR             45     190/ 17/ 25 1007.1F
BURNS HARBOR               45     200/ 25/ 31 1008.5F
MICHIGAN CITY              44     180/ 23/ 29   N/A
$$

ILZ025>027-034>036-040-047-049-050-058-095>099-210500-
WEST-CENTRAL ILLINOIS

CITY           SKY/WX    TMP DP  RH WIND       PRES   REMARKS
QUINCY         PTCLDY    50  30  46 S14       29.78S
GALESBURG*     PTCLDY    46  32  59 S9        29.73F
MACOMB*        PTCLDY    45  31  60 S8        29.78S
JACKSONVILLE*  MOCLDY    45  30  55 S12       29.82S
PITTSFIELD*    CLOUDY    51  30  44 S13G18    29.82S
$$

ILZ028>032-037-038-041>044-048-051>054-059>061-210500-
CENTRAL ILLINOIS

CITY           SKY/WX    TMP DP  RH WIND       PRES   REMARKS
PONTIAC        CLOUDY    43  32  66 S20G29    29.79F
BLOOMINGTON    MOCLDY    42  31  64 S24G31    29.80F
DECATUR        CLOUDY    42  30  62 S17G29    29.87R
PEORIA         CLOUDY    44  32  62 S16       29.78F
LACON*         MOCLDY    46  31  56 SW13G22   29.75S
LINCOLN*       CLOUDY    45  33  64 S13G23    29.83S
SPRINGFIELD    CLOUDY    44  32  62 S18       29.84R
TAYLORVILLE    PTCLDY    41  32  68 S20G25    29.87S
$$

ILZ033-039-045-046-055>057-062-063-210500-
EAST-CENTRAL ILLINOIS

CITY           SKY/WX    TMP DP  RH WIND       PRES   REMARKS
CHAMPAIGN      PTCLDY    39  30  70 S17       29.87S WCI  30
DANVILLE*      CLEAR     40  28  63 S15G23    29.86S
RANTOUL*       CLOUDY    42  32  66 S14       29.86S
MATTOON        CLEAR     42  28  57 S13G21    29.90R
PARIS*         CLEAR     39  29  69 S12       29.92S WCI  31
$$

ILZ079-100>102-210500-
SOUTHWEST ILLINOIS

CITY           SKY/WX    TMP DP  RH WIND       PRES   REMARKS
ALTON          CLEAR     43  32  65 S12       29.88F
BELLEVILLE     CLOUDY    43  30  59 SW12      29.90S
CAHOKIA*       CLOUDY    46  28  49 S7        29.89S
SPARTA*        CLEAR     44  29  55 SW15G21   29.94R
$$

ILZ064>066-069>071-074>076-080>082-084>086-088>090-092>094-210500-
SOUTH-CENTRAL ILLINOIS

CITY           SKY/WX    TMP DP  RH WIND       PRES   REMARKS
CARBONDALE     CLEAR     43  28  55 S10       29.97S
CAIRO*         CLEAR     41  28  60 S7        30.02R
EFFINGHAM*     CLEAR     43  29  58 S8        29.95R
MARION         CLEAR     43  28  56 S12       29.97S
MT. VERNON     CLEAR     41  28  60 S10       29.94S
CENTRALIA*     CLOUDY    44  29  57 SW13      29.92R
SALEM*         CLOUDY    44  27  51 SW12G17   29.93R
METROPOLIS*    CLEAR     42  26  52 S5        30.02S
$$

ILZ067-068-072-073-078-083-087-091-210500-
SOUTHEAST ILLINOIS

CITY           SKY/WX    TMP DP  RH WIND       PRES   REMARKS
LAWRENCEVILLE  CLEAR     41  28  60 S14       29.96S
FLORA*         CLEAR     43  28  56 S13       29.94R
FAIRFIELD*     CLEAR     42  28  58 S5        29.94S
HARRISBURG*    CLEAR     40  27  60 S7        29.99S
ROBINSON*      CLEAR     39  27  60 S10       29.95R WCI  33
CARMI*         CLEAR     35  28  76 S3        29.97F
$$

ABBREVIATIONS USED IN REMARKS
   TC - TEMPERATURE IN CELSIUS
  WCI - WIND CHILL INDEX
   HX - HEAT INDEX
  VSB - VISIBILITY
$$





USA.gov is the U.S. government's official web portal to all federal, state and local government web resources and services.